<?xml version="1.0" encoding="UTF-8" standalone="no" ?>
<gpx xmlns="http://www.topografix.com/GPX/1/1" xmlns:xsi="http://www.w3.org/2001/XMLSchema-instance" xsi:schemaLocation="http://www.topografix.com/GPX/1/1 http://www.topografix.com/GPX/1/1/gpx.xsd" version="1.1" creator="VisuGPX - https://www.visugpx.com">
  <metadata>
    <name>Raid Duster Parpaillon j1</name>
    <desc><![CDATA[Raid Duster Parpaillon j1]]></desc>
  </metadata>
  <trk>
    <name><![CDATA[Track from parpaillon j1]]></name>
    <trkseg>
      <trkpt lat="43.76761" lon="7.48934">
        <ele>6.8</ele>
        <time>2014-07-20T14:09:05Z</time>
      </trkpt>
      <trkpt lat="43.76832" lon="7.49044">
        <ele>5</ele>
        <time>1999-11-30T00:00:00Z</time>
      </trkpt>
      <trkpt lat="43.76882" lon="7.49114">
        <ele>8.1</ele>
        <time>1999-11-30T00:00:00Z</time>
      </trkpt>
      <trkpt lat="43.76918" lon="7.49016">
        <ele>14.1</ele>
        <time>1999-11-30T00:00:00Z</time>
      </trkpt>
      <trkpt lat="43.7689" lon="7.48944">
        <ele>13.6</ele>
        <time>1999-11-30T00:00:00Z</time>
      </trkpt>
      <trkpt lat="43.76909" lon="7.48872">
        <ele>23.1</ele>
        <time>1999-11-30T00:00:00Z</time>
      </trkpt>
      <trkpt lat="43.76883" lon="7.48789">
        <ele>28.8</ele>
        <time>1999-11-30T00:00:00Z</time>
      </trkpt>
      <trkpt lat="43.76915" lon="7.48749">
        <ele>39.5</ele>
        <time>1999-11-30T00:00:00Z</time>
      </trkpt>
      <trkpt lat="43.7695" lon="7.48884">
        <ele>29.5</ele>
        <time>1999-11-30T00:00:00Z</time>
      </trkpt>
      <trkpt lat="43.77002" lon="7.48691">
        <ele>60.7</ele>
        <time>1999-11-30T00:00:00Z</time>
      </trkpt>
      <trkpt lat="43.76918" lon="7.48662">
        <ele>43.8</ele>
        <time>1999-11-30T00:00:00Z</time>
      </trkpt>
      <trkpt lat="43.76919" lon="7.4864">
        <ele>43.6</ele>
        <time>1999-11-30T00:00:00Z</time>
      </trkpt>
      <trkpt lat="43.77004" lon="7.48614">
        <ele>57.5</ele>
        <time>1999-11-30T00:00:00Z</time>
      </trkpt>
      <trkpt lat="43.77076" lon="7.48631">
        <ele>70.2</ele>
        <time>1999-11-30T00:00:00Z</time>
      </trkpt>
      <trkpt lat="43.77127" lon="7.48642">
        <ele>76.8</ele>
        <time>1999-11-30T00:00:00Z</time>
      </trkpt>
      <trkpt lat="43.77184" lon="7.48618">
        <ele>82.8</ele>
        <time>1999-11-30T00:00:00Z</time>
      </trkpt>
      <trkpt lat="43.77236" lon="7.48598">
        <ele>87.1</ele>
        <time>1999-11-30T00:00:00Z</time>
      </trkpt>
      <trkpt lat="43.77278" lon="7.48523">
        <ele>93.2</ele>
        <time>1999-11-30T00:00:00Z</time>
      </trkpt>
      <trkpt lat="43.77296" lon="7.48463">
        <ele>97.6</ele>
        <time>1999-11-30T00:00:00Z</time>
      </trkpt>
      <trkpt lat="43.77301" lon="7.48425">
        <ele>99.7</ele>
        <time>1999-11-30T00:00:00Z</time>
      </trkpt>
      <trkpt lat="43.77297" lon="7.48375">
        <ele>102.5</ele>
        <time>1999-11-30T00:00:00Z</time>
      </trkpt>
      <trkpt lat="43.77331" lon="7.48211">
        <ele>126</ele>
        <time>1999-11-30T00:00:00Z</time>
      </trkpt>
      <trkpt lat="43.77318" lon="7.48179">
        <ele>124.8</ele>
        <time>1999-11-30T00:00:00Z</time>
      </trkpt>
      <trkpt lat="43.77247" lon="7.48194">
        <ele>110.7</ele>
        <time>1999-11-30T00:00:00Z</time>
      </trkpt>
      <trkpt lat="43.77238" lon="7.48174">
        <ele>107.7</ele>
        <time>1999-11-30T00:00:00Z</time>
      </trkpt>
      <trkpt lat="43.77369" lon="7.47928">
        <ele>111.5</ele>
        <time>1999-11-30T00:00:00Z</time>
      </trkpt>
      <trkpt lat="43.77449" lon="7.47862">
        <ele>117.2</ele>
        <time>1999-11-30T00:00:00Z</time>
      </trkpt>
      <trkpt lat="43.77605" lon="7.47792">
        <ele>129.4</ele>
        <time>1999-11-30T00:00:00Z</time>
      </trkpt>
      <trkpt lat="43.77649" lon="7.47777">
        <ele>133.4</ele>
        <time>1999-11-30T00:00:00Z</time>
      </trkpt>
      <trkpt lat="43.77824" lon="7.47564">
        <ele>139.9</ele>
        <time>1999-11-30T00:00:00Z</time>
      </trkpt>
      <trkpt lat="43.77921" lon="7.47494">
        <ele>153.5</ele>
        <time>1999-11-30T00:00:00Z</time>
      </trkpt>
      <trkpt lat="43.77977" lon="7.47459">
        <ele>162</ele>
        <time>1999-11-30T00:00:00Z</time>
      </trkpt>
      <trkpt lat="43.78014" lon="7.47489">
        <ele>170.5</ele>
        <time>1999-11-30T00:00:00Z</time>
      </trkpt>
      <trkpt lat="43.78083" lon="7.47449">
        <ele>174.8</ele>
        <time>1999-11-30T00:00:00Z</time>
      </trkpt>
      <trkpt lat="43.78159" lon="7.47395">
        <ele>172.3</ele>
        <time>1999-11-30T00:00:00Z</time>
      </trkpt>
      <trkpt lat="43.78209" lon="7.47341">
        <ele>179</ele>
        <time>1999-11-30T00:00:00Z</time>
      </trkpt>
      <trkpt lat="43.78245" lon="7.4727">
        <ele>186.7</ele>
        <time>1999-11-30T00:00:00Z</time>
      </trkpt>
      <trkpt lat="43.7829" lon="7.47133">
        <ele>217.5</ele>
        <time>1999-11-30T00:00:00Z</time>
      </trkpt>
      <trkpt lat="43.78303" lon="7.47096">
        <ele>221.1</ele>
        <time>1999-11-30T00:00:00Z</time>
      </trkpt>
      <trkpt lat="43.78373" lon="7.4711">
        <ele>217.3</ele>
        <time>1999-11-30T00:00:00Z</time>
      </trkpt>
      <trkpt lat="43.78417" lon="7.47118">
        <ele>205.5</ele>
        <time>1999-11-30T00:00:00Z</time>
      </trkpt>
      <trkpt lat="43.78388" lon="7.47066">
        <ele>218.9</ele>
        <time>1999-11-30T00:00:00Z</time>
      </trkpt>
      <trkpt lat="43.78371" lon="7.47005">
        <ele>229.8</ele>
        <time>1999-11-30T00:00:00Z</time>
      </trkpt>
      <trkpt lat="43.78375" lon="7.46958">
        <ele>234.1</ele>
        <time>1999-11-30T00:00:00Z</time>
      </trkpt>
      <trkpt lat="43.78402" lon="7.4689">
        <ele>242.6</ele>
        <time>1999-11-30T00:00:00Z</time>
      </trkpt>
      <trkpt lat="43.78446" lon="7.46888">
        <ele>234.1</ele>
        <time>1999-11-30T00:00:00Z</time>
      </trkpt>
      <trkpt lat="43.78507" lon="7.46863">
        <ele>229.4</ele>
        <time>1999-11-30T00:00:00Z</time>
      </trkpt>
      <trkpt lat="43.78511" lon="7.46829">
        <ele>235.4</ele>
        <time>1999-11-30T00:00:00Z</time>
      </trkpt>
      <trkpt lat="43.78493" lon="7.46762">
        <ele>252.8</ele>
        <time>1999-11-30T00:00:00Z</time>
      </trkpt>
      <trkpt lat="43.78511" lon="7.46719">
        <ele>255.7</ele>
        <time>1999-11-30T00:00:00Z</time>
      </trkpt>
      <trkpt lat="43.78565" lon="7.46718">
        <ele>245.3</ele>
        <time>1999-11-30T00:00:00Z</time>
      </trkpt>
      <trkpt lat="43.78562" lon="7.46681">
        <ele>249.6</ele>
        <time>1999-11-30T00:00:00Z</time>
      </trkpt>
      <trkpt lat="43.78597" lon="7.46653">
        <ele>249.8</ele>
        <time>1999-11-30T00:00:00Z</time>
      </trkpt>
      <trkpt lat="43.78614" lon="7.46562">
        <ele>253.8</ele>
        <time>1999-11-30T00:00:00Z</time>
      </trkpt>
      <trkpt lat="43.78646" lon="7.46527">
        <ele>253.8</ele>
        <time>1999-11-30T00:00:00Z</time>
      </trkpt>
      <trkpt lat="43.78659" lon="7.46494">
        <ele>253.6</ele>
        <time>1999-11-30T00:00:00Z</time>
      </trkpt>
      <trkpt lat="43.78647" lon="7.46462">
        <ele>254</ele>
        <time>1999-11-30T00:00:00Z</time>
      </trkpt>
      <trkpt lat="43.78676" lon="7.46374">
        <ele>258.4</ele>
        <time>1999-11-30T00:00:00Z</time>
      </trkpt>
      <trkpt lat="43.78721" lon="7.4635">
        <ele>270.2</ele>
        <time>1999-11-30T00:00:00Z</time>
      </trkpt>
      <trkpt lat="43.7871" lon="7.46317">
        <ele>278</ele>
        <time>1999-11-30T00:00:00Z</time>
      </trkpt>
      <trkpt lat="43.78767" lon="7.4626">
        <ele>281</ele>
        <time>1999-11-30T00:00:00Z</time>
      </trkpt>
      <trkpt lat="43.7875" lon="7.46205">
        <ele>289.9</ele>
        <time>1999-11-30T00:00:00Z</time>
      </trkpt>
      <trkpt lat="43.78765" lon="7.46156">
        <ele>295.8</ele>
        <time>1999-11-30T00:00:00Z</time>
      </trkpt>
      <trkpt lat="43.78808" lon="7.46142">
        <ele>300.3</ele>
        <time>1999-11-30T00:00:00Z</time>
      </trkpt>
      <trkpt lat="43.78865" lon="7.46142">
        <ele>300.9</ele>
        <time>1999-11-30T00:00:00Z</time>
      </trkpt>
      <trkpt lat="43.78908" lon="7.46074">
        <ele>326</ele>
        <time>1999-11-30T00:00:00Z</time>
      </trkpt>
      <trkpt lat="43.78961" lon="7.46109">
        <ele>308.9</ele>
        <time>1999-11-30T00:00:00Z</time>
      </trkpt>
      <trkpt lat="43.79012" lon="7.46115">
        <ele>309.9</ele>
        <time>1999-11-30T00:00:00Z</time>
      </trkpt>
      <trkpt lat="43.79049" lon="7.46061">
        <ele>333.5</ele>
        <time>1999-11-30T00:00:00Z</time>
      </trkpt>
      <trkpt lat="43.79094" lon="7.46057">
        <ele>334.9</ele>
        <time>1999-11-30T00:00:00Z</time>
      </trkpt>
      <trkpt lat="43.79145" lon="7.46078">
        <ele>328.4</ele>
        <time>1999-11-30T00:00:00Z</time>
      </trkpt>
      <trkpt lat="43.79202" lon="7.46062">
        <ele>341.9</ele>
        <time>1999-11-30T00:00:00Z</time>
      </trkpt>
      <trkpt lat="43.79268" lon="7.46065">
        <ele>342.6</ele>
        <time>1999-11-30T00:00:00Z</time>
      </trkpt>
      <trkpt lat="43.79232" lon="7.46038">
        <ele>352.9</ele>
        <time>1999-11-30T00:00:00Z</time>
      </trkpt>
      <trkpt lat="43.79171" lon="7.46037">
        <ele>349</ele>
        <time>1999-11-30T00:00:00Z</time>
      </trkpt>
      <trkpt lat="43.79152" lon="7.46026">
        <ele>352.4</ele>
        <time>1999-11-30T00:00:00Z</time>
      </trkpt>
      <trkpt lat="43.7911" lon="7.45981">
        <ele>370.9</ele>
        <time>1999-11-30T00:00:00Z</time>
      </trkpt>
      <trkpt lat="43.79041" lon="7.45957">
        <ele>378.8</ele>
        <time>1999-11-30T00:00:00Z</time>
      </trkpt>
      <trkpt lat="43.79086" lon="7.45938">
        <ele>391.7</ele>
        <time>1999-11-30T00:00:00Z</time>
      </trkpt>
      <trkpt lat="43.79137" lon="7.45947">
        <ele>389.5</ele>
        <time>1999-11-30T00:00:00Z</time>
      </trkpt>
      <trkpt lat="43.79193" lon="7.45959">
        <ele>385.8</ele>
        <time>1999-11-30T00:00:00Z</time>
      </trkpt>
      <trkpt lat="43.79244" lon="7.4593">
        <ele>398.9</ele>
        <time>1999-11-30T00:00:00Z</time>
      </trkpt>
      <trkpt lat="43.79299" lon="7.4591">
        <ele>405.2</ele>
        <time>1999-11-30T00:00:00Z</time>
      </trkpt>
      <trkpt lat="43.79351" lon="7.4595">
        <ele>393</ele>
        <time>1999-11-30T00:00:00Z</time>
      </trkpt>
      <trkpt lat="43.79396" lon="7.45961">
        <ele>396.8</ele>
        <time>1999-11-30T00:00:00Z</time>
      </trkpt>
      <trkpt lat="43.79427" lon="7.45994">
        <ele>397.7</ele>
        <time>1999-11-30T00:00:00Z</time>
      </trkpt>
      <trkpt lat="43.79429" lon="7.46066">
        <ele>385.5</ele>
        <time>1999-11-30T00:00:00Z</time>
      </trkpt>
      <trkpt lat="43.79415" lon="7.46106">
        <ele>374.5</ele>
        <time>1999-11-30T00:00:00Z</time>
      </trkpt>
      <trkpt lat="43.79403" lon="7.46152">
        <ele>366.1</ele>
        <time>1999-11-30T00:00:00Z</time>
      </trkpt>
      <trkpt lat="43.79405" lon="7.46203">
        <ele>368.3</ele>
        <time>1999-11-30T00:00:00Z</time>
      </trkpt>
      <trkpt lat="43.79403" lon="7.46268">
        <ele>373.3</ele>
        <time>1999-11-30T00:00:00Z</time>
      </trkpt>
      <trkpt lat="43.79405" lon="7.46308">
        <ele>377.3</ele>
        <time>1999-11-30T00:00:00Z</time>
      </trkpt>
      <trkpt lat="43.79411" lon="7.46352">
        <ele>380.7</ele>
        <time>1999-11-30T00:00:00Z</time>
      </trkpt>
      <trkpt lat="43.79443" lon="7.46244">
        <ele>393</ele>
        <time>1999-11-30T00:00:00Z</time>
      </trkpt>
      <trkpt lat="43.79504" lon="7.46205">
        <ele>426.2</ele>
        <time>1999-11-30T00:00:00Z</time>
      </trkpt>
      <trkpt lat="43.79491" lon="7.46135">
        <ele>418</ele>
        <time>1999-11-30T00:00:00Z</time>
      </trkpt>
      <trkpt lat="43.79471" lon="7.46073">
        <ele>405.6</ele>
        <time>1999-11-30T00:00:00Z</time>
      </trkpt>
      <trkpt lat="43.79479" lon="7.46009">
        <ele>415.3</ele>
        <time>1999-11-30T00:00:00Z</time>
      </trkpt>
      <trkpt lat="43.79531" lon="7.45964">
        <ele>441.5</ele>
        <time>1999-11-30T00:00:00Z</time>
      </trkpt>
      <trkpt lat="43.79535" lon="7.45927">
        <ele>456.5</ele>
        <time>1999-11-30T00:00:00Z</time>
      </trkpt>
      <trkpt lat="43.79509" lon="7.4588">
        <ele>464.4</ele>
        <time>1999-11-30T00:00:00Z</time>
      </trkpt>
      <trkpt lat="43.79467" lon="7.45837">
        <ele>473.2</ele>
        <time>1999-11-30T00:00:00Z</time>
      </trkpt>
      <trkpt lat="43.7939" lon="7.45785">
        <ele>483</ele>
        <time>1999-11-30T00:00:00Z</time>
      </trkpt>
      <trkpt lat="43.79354" lon="7.45746">
        <ele>496.2</ele>
        <time>1999-11-30T00:00:00Z</time>
      </trkpt>
      <trkpt lat="43.79302" lon="7.45746">
        <ele>480.9</ele>
        <time>1999-11-30T00:00:00Z</time>
      </trkpt>
      <trkpt lat="43.79254" lon="7.45703">
        <ele>494.3</ele>
        <time>1999-11-30T00:00:00Z</time>
      </trkpt>
      <trkpt lat="43.79193" lon="7.45643">
        <ele>508.7</ele>
        <time>1999-11-30T00:00:00Z</time>
      </trkpt>
      <trkpt lat="43.79147" lon="7.45643">
        <ele>509.8</ele>
        <time>1999-11-30T00:00:00Z</time>
      </trkpt>
      <trkpt lat="43.79107" lon="7.4569">
        <ele>494.2</ele>
        <time>1999-11-30T00:00:00Z</time>
      </trkpt>
      <trkpt lat="43.79065" lon="7.4571">
        <ele>476.7</ele>
        <time>1999-11-30T00:00:00Z</time>
      </trkpt>
      <trkpt lat="43.7905" lon="7.45699">
        <ele>472</ele>
        <time>1999-11-30T00:00:00Z</time>
      </trkpt>
      <trkpt lat="43.79044" lon="7.45678">
        <ele>469.6</ele>
        <time>1999-11-30T00:00:00Z</time>
      </trkpt>
      <trkpt lat="43.79076" lon="7.45654">
        <ele>484.9</ele>
        <time>1999-11-30T00:00:00Z</time>
      </trkpt>
      <trkpt lat="43.79116" lon="7.45633">
        <ele>507.8</ele>
        <time>1999-11-30T00:00:00Z</time>
      </trkpt>
      <trkpt lat="43.7915" lon="7.45582">
        <ele>527</ele>
        <time>1999-11-30T00:00:00Z</time>
      </trkpt>
      <trkpt lat="43.79199" lon="7.4556">
        <ele>546.9</ele>
        <time>1999-11-30T00:00:00Z</time>
      </trkpt>
      <trkpt lat="43.79248" lon="7.45594">
        <ele>551.1</ele>
        <time>1999-11-30T00:00:00Z</time>
      </trkpt>
      <trkpt lat="43.79291" lon="7.45636">
        <ele>539.4</ele>
        <time>1999-11-30T00:00:00Z</time>
      </trkpt>
      <trkpt lat="43.79335" lon="7.45668">
        <ele>536.1</ele>
        <time>1999-11-30T00:00:00Z</time>
      </trkpt>
      <trkpt lat="43.79394" lon="7.45672">
        <ele>550.9</ele>
        <time>1999-11-30T00:00:00Z</time>
      </trkpt>
      <trkpt lat="43.79461" lon="7.45705">
        <ele>541.4</ele>
        <time>1999-11-30T00:00:00Z</time>
      </trkpt>
      <trkpt lat="43.7953" lon="7.45677">
        <ele>566.8</ele>
        <time>1999-11-30T00:00:00Z</time>
      </trkpt>
      <trkpt lat="43.79605" lon="7.45709">
        <ele>560.5</ele>
        <time>1999-11-30T00:00:00Z</time>
      </trkpt>
      <trkpt lat="43.79675" lon="7.45726">
        <ele>564.4</ele>
        <time>1999-11-30T00:00:00Z</time>
      </trkpt>
      <trkpt lat="43.79747" lon="7.45733">
        <ele>574.6</ele>
        <time>1999-11-30T00:00:00Z</time>
      </trkpt>
      <trkpt lat="43.79814" lon="7.4576">
        <ele>578.9</ele>
        <time>1999-11-30T00:00:00Z</time>
      </trkpt>
      <trkpt lat="43.79883" lon="7.45754">
        <ele>594.2</ele>
        <time>1999-11-30T00:00:00Z</time>
      </trkpt>
      <trkpt lat="43.79963" lon="7.45773">
        <ele>599.3</ele>
        <time>1999-11-30T00:00:00Z</time>
      </trkpt>
      <trkpt lat="43.80056" lon="7.45806">
        <ele>601.1</ele>
        <time>1999-11-30T00:00:00Z</time>
      </trkpt>
      <trkpt lat="43.80142" lon="7.45811">
        <ele>608.8</ele>
        <time>1999-11-30T00:00:00Z</time>
      </trkpt>
      <trkpt lat="43.80192" lon="7.4583">
        <ele>609.1</ele>
        <time>1999-11-30T00:00:00Z</time>
      </trkpt>
      <trkpt lat="43.80245" lon="7.45837">
        <ele>603.2</ele>
        <time>1999-11-30T00:00:00Z</time>
      </trkpt>
      <trkpt lat="43.80236" lon="7.45766">
        <ele>618.1</ele>
        <time>1999-11-30T00:00:00Z</time>
      </trkpt>
      <trkpt lat="43.80247" lon="7.45672">
        <ele>642.8</ele>
        <time>1999-11-30T00:00:00Z</time>
      </trkpt>
      <trkpt lat="43.80272" lon="7.4561">
        <ele>654.8</ele>
        <time>1999-11-30T00:00:00Z</time>
      </trkpt>
      <trkpt lat="43.80329" lon="7.4561">
        <ele>639.4</ele>
        <time>1999-11-30T00:00:00Z</time>
      </trkpt>
      <trkpt lat="43.80374" lon="7.45606">
        <ele>634.2</ele>
        <time>1999-11-30T00:00:00Z</time>
      </trkpt>
      <trkpt lat="43.80387" lon="7.45533">
        <ele>669.5</ele>
        <time>1999-11-30T00:00:00Z</time>
      </trkpt>
      <trkpt lat="43.80458" lon="7.45533">
        <ele>642.7</ele>
        <time>1999-11-30T00:00:00Z</time>
      </trkpt>
      <trkpt lat="43.805" lon="7.45472">
        <ele>664.6</ele>
        <time>1999-11-30T00:00:00Z</time>
      </trkpt>
      <trkpt lat="43.80539" lon="7.45406">
        <ele>672.4</ele>
        <time>1999-11-30T00:00:00Z</time>
      </trkpt>
      <trkpt lat="43.80571" lon="7.45349">
        <ele>671.5</ele>
        <time>1999-11-30T00:00:00Z</time>
      </trkpt>
      <trkpt lat="43.80556" lon="7.45291">
        <ele>696.4</ele>
        <time>1999-11-30T00:00:00Z</time>
      </trkpt>
      <trkpt lat="43.80588" lon="7.45237">
        <ele>684.5</ele>
        <time>1999-11-30T00:00:00Z</time>
      </trkpt>
      <trkpt lat="43.80591" lon="7.45163">
        <ele>687.2</ele>
        <time>1999-11-30T00:00:00Z</time>
      </trkpt>
      <trkpt lat="43.80585" lon="7.45074">
        <ele>703.3</ele>
        <time>1999-11-30T00:00:00Z</time>
      </trkpt>
      <trkpt lat="43.80625" lon="7.45006">
        <ele>719.8</ele>
        <time>1999-11-30T00:00:00Z</time>
      </trkpt>
      <trkpt lat="43.80666" lon="7.4497">
        <ele>736.6</ele>
        <time>1999-11-30T00:00:00Z</time>
      </trkpt>
      <trkpt lat="43.80695" lon="7.45057">
        <ele>682</ele>
        <time>1999-11-30T00:00:00Z</time>
      </trkpt>
      <trkpt lat="43.80739" lon="7.45091">
        <ele>677.8</ele>
        <time>1999-11-30T00:00:00Z</time>
      </trkpt>
      <trkpt lat="43.80783" lon="7.45109">
        <ele>688</ele>
        <time>1999-11-30T00:00:00Z</time>
      </trkpt>
      <trkpt lat="43.8084" lon="7.45153">
        <ele>694.5</ele>
        <time>1999-11-30T00:00:00Z</time>
      </trkpt>
      <trkpt lat="43.80872" lon="7.45249">
        <ele>674.3</ele>
        <time>1999-11-30T00:00:00Z</time>
      </trkpt>
      <trkpt lat="43.80936" lon="7.45257">
        <ele>691.7</ele>
        <time>1999-11-30T00:00:00Z</time>
      </trkpt>
      <trkpt lat="43.80976" lon="7.45183">
        <ele>716.8</ele>
        <time>1999-11-30T00:00:00Z</time>
      </trkpt>
      <trkpt lat="43.8102" lon="7.45071">
        <ele>736.6</ele>
        <time>1999-11-30T00:00:00Z</time>
      </trkpt>
      <trkpt lat="43.81013" lon="7.45038">
        <ele>748.9</ele>
        <time>1999-11-30T00:00:00Z</time>
      </trkpt>
      <trkpt lat="43.81062" lon="7.45015">
        <ele>727.3</ele>
        <time>1999-11-30T00:00:00Z</time>
      </trkpt>
      <trkpt lat="43.81048" lon="7.44947">
        <ele>746.4</ele>
        <time>1999-11-30T00:00:00Z</time>
      </trkpt>
      <trkpt lat="43.81045" lon="7.44916">
        <ele>752.5</ele>
        <time>1999-11-30T00:00:00Z</time>
      </trkpt>
      <trkpt lat="43.81037" lon="7.44878">
        <ele>761.5</ele>
        <time>1999-11-30T00:00:00Z</time>
      </trkpt>
      <trkpt lat="43.81077" lon="7.44776">
        <ele>770.4</ele>
        <time>1999-11-30T00:00:00Z</time>
      </trkpt>
      <trkpt lat="43.81131" lon="7.44841">
        <ele>733.3</ele>
        <time>1999-11-30T00:00:00Z</time>
      </trkpt>
      <trkpt lat="43.81191" lon="7.44861">
        <ele>735.4</ele>
        <time>1999-11-30T00:00:00Z</time>
      </trkpt>
      <trkpt lat="43.81231" lon="7.44831">
        <ele>746.6</ele>
        <time>1999-11-30T00:00:00Z</time>
      </trkpt>
      <trkpt lat="43.81261" lon="7.44762">
        <ele>764.6</ele>
        <time>1999-11-30T00:00:00Z</time>
      </trkpt>
      <trkpt lat="43.81256" lon="7.4472">
        <ele>777.5</ele>
        <time>1999-11-30T00:00:00Z</time>
      </trkpt>
      <trkpt lat="43.813" lon="7.44694">
        <ele>773.7</ele>
        <time>1999-11-30T00:00:00Z</time>
      </trkpt>
      <trkpt lat="43.81346" lon="7.44691">
        <ele>758.6</ele>
        <time>1999-11-30T00:00:00Z</time>
      </trkpt>
      <trkpt lat="43.8139" lon="7.44667">
        <ele>751.7</ele>
        <time>1999-11-30T00:00:00Z</time>
      </trkpt>
      <trkpt lat="43.81428" lon="7.44628">
        <ele>748.2</ele>
        <time>1999-11-30T00:00:00Z</time>
      </trkpt>
      <trkpt lat="43.81466" lon="7.44574">
        <ele>739.8</ele>
        <time>1999-11-30T00:00:00Z</time>
      </trkpt>
      <trkpt lat="43.81526" lon="7.4451">
        <ele>727.7</ele>
        <time>1999-11-30T00:00:00Z</time>
      </trkpt>
      <trkpt lat="43.8161" lon="7.44444">
        <ele>725</ele>
        <time>1999-11-30T00:00:00Z</time>
      </trkpt>
      <trkpt lat="43.81692" lon="7.44396">
        <ele>727.9</ele>
        <time>1999-11-30T00:00:00Z</time>
      </trkpt>
      <trkpt lat="43.81745" lon="7.44405">
        <ele>741.1</ele>
        <time>1999-11-30T00:00:00Z</time>
      </trkpt>
      <trkpt lat="43.81779" lon="7.4444">
        <ele>758.4</ele>
        <time>1999-11-30T00:00:00Z</time>
      </trkpt>
      <trkpt lat="43.81817" lon="7.44428">
        <ele>760.7</ele>
        <time>1999-11-30T00:00:00Z</time>
      </trkpt>
      <trkpt lat="43.81844" lon="7.44385">
        <ele>754.5</ele>
        <time>1999-11-30T00:00:00Z</time>
      </trkpt>
      <trkpt lat="43.81853" lon="7.44348">
        <ele>747.6</ele>
        <time>1999-11-30T00:00:00Z</time>
      </trkpt>
      <trkpt lat="43.81902" lon="7.44331">
        <ele>756.6</ele>
        <time>1999-11-30T00:00:00Z</time>
      </trkpt>
      <trkpt lat="43.81903" lon="7.44353">
        <ele>762.6</ele>
        <time>1999-11-30T00:00:00Z</time>
      </trkpt>
      <trkpt lat="43.81885" lon="7.44362">
        <ele>759.8</ele>
        <time>1999-11-30T00:00:00Z</time>
      </trkpt>
      <trkpt lat="43.81854" lon="7.4444">
        <ele>771</ele>
        <time>1999-11-30T00:00:00Z</time>
      </trkpt>
      <trkpt lat="43.81833" lon="7.44518">
        <ele>793.4</ele>
        <time>1999-11-30T00:00:00Z</time>
      </trkpt>
      <trkpt lat="43.81801" lon="7.44541">
        <ele>798.5</ele>
        <time>1999-11-30T00:00:00Z</time>
      </trkpt>
      <trkpt lat="43.81782" lon="7.4454">
        <ele>796.3</ele>
        <time>1999-11-30T00:00:00Z</time>
      </trkpt>
      <trkpt lat="43.81761" lon="7.44521">
        <ele>786.9</ele>
        <time>1999-11-30T00:00:00Z</time>
      </trkpt>
      <trkpt lat="43.81732" lon="7.44508">
        <ele>779.3</ele>
        <time>1999-11-30T00:00:00Z</time>
      </trkpt>
      <trkpt lat="43.81714" lon="7.44521">
        <ele>782.2</ele>
        <time>1999-11-30T00:00:00Z</time>
      </trkpt>
      <trkpt lat="43.81765" lon="7.44569">
        <ele>801.6</ele>
        <time>1999-11-30T00:00:00Z</time>
      </trkpt>
      <trkpt lat="43.81833" lon="7.44567">
        <ele>808.5</ele>
        <time>1999-11-30T00:00:00Z</time>
      </trkpt>
      <trkpt lat="43.81872" lon="7.44537">
        <ele>803.3</ele>
        <time>1999-11-30T00:00:00Z</time>
      </trkpt>
      <trkpt lat="43.81908" lon="7.44476">
        <ele>797.3</ele>
        <time>1999-11-30T00:00:00Z</time>
      </trkpt>
      <trkpt lat="43.81922" lon="7.44456">
        <ele>796.9</ele>
        <time>1999-11-30T00:00:00Z</time>
      </trkpt>
      <trkpt lat="43.81875" lon="7.44574">
        <ele>815.9</ele>
        <time>1999-11-30T00:00:00Z</time>
      </trkpt>
      <trkpt lat="43.81912" lon="7.44524">
        <ele>812.9</ele>
        <time>1999-11-30T00:00:00Z</time>
      </trkpt>
      <trkpt lat="43.8196" lon="7.44471">
        <ele>816</ele>
        <time>1999-11-30T00:00:00Z</time>
      </trkpt>
      <trkpt lat="43.82026" lon="7.44471">
        <ele>833.9</ele>
        <time>1999-11-30T00:00:00Z</time>
      </trkpt>
      <trkpt lat="43.82055" lon="7.44418">
        <ele>827</ele>
        <time>1999-11-30T00:00:00Z</time>
      </trkpt>
      <trkpt lat="43.82087" lon="7.44354">
        <ele>822.9</ele>
        <time>1999-11-30T00:00:00Z</time>
      </trkpt>
      <trkpt lat="43.8214" lon="7.44326">
        <ele>833.3</ele>
        <time>1999-11-30T00:00:00Z</time>
      </trkpt>
      <trkpt lat="43.82184" lon="7.44334">
        <ele>850</ele>
        <time>1999-11-30T00:00:00Z</time>
      </trkpt>
      <trkpt lat="43.82227" lon="7.44292">
        <ele>849.1</ele>
        <time>1999-11-30T00:00:00Z</time>
      </trkpt>
      <trkpt lat="43.82272" lon="7.44233">
        <ele>860.7</ele>
        <time>1999-11-30T00:00:00Z</time>
      </trkpt>
      <trkpt lat="43.82269" lon="7.44269">
        <ele>863.9</ele>
        <time>1999-11-30T00:00:00Z</time>
      </trkpt>
      <trkpt lat="43.82247" lon="7.44345">
        <ele>873</ele>
        <time>1999-11-30T00:00:00Z</time>
      </trkpt>
      <trkpt lat="43.82277" lon="7.44342">
        <ele>881.2</ele>
        <time>1999-11-30T00:00:00Z</time>
      </trkpt>
      <trkpt lat="43.82306" lon="7.44274">
        <ele>881.1</ele>
        <time>1999-11-30T00:00:00Z</time>
      </trkpt>
      <trkpt lat="43.82316" lon="7.44342">
        <ele>893.5</ele>
        <time>1999-11-30T00:00:00Z</time>
      </trkpt>
      <trkpt lat="43.82313" lon="7.444">
        <ele>900.7</ele>
        <time>1999-11-30T00:00:00Z</time>
      </trkpt>
      <trkpt lat="43.82282" lon="7.44469">
        <ele>903.7</ele>
        <time>1999-11-30T00:00:00Z</time>
      </trkpt>
      <trkpt lat="43.82229" lon="7.44544">
        <ele>912.5</ele>
        <time>1999-11-30T00:00:00Z</time>
      </trkpt>
      <trkpt lat="43.82173" lon="7.44656">
        <ele>923.2</ele>
        <time>1999-11-30T00:00:00Z</time>
      </trkpt>
      <trkpt lat="43.82112" lon="7.44767">
        <ele>933.2</ele>
        <time>1999-11-30T00:00:00Z</time>
      </trkpt>
      <trkpt lat="43.8215" lon="7.44761">
        <ele>937.8</ele>
        <time>1999-11-30T00:00:00Z</time>
      </trkpt>
      <trkpt lat="43.82222" lon="7.44659">
        <ele>933</ele>
        <time>1999-11-30T00:00:00Z</time>
      </trkpt>
      <trkpt lat="43.82294" lon="7.44593">
        <ele>935.6</ele>
        <time>1999-11-30T00:00:00Z</time>
      </trkpt>
      <trkpt lat="43.82375" lon="7.44545">
        <ele>949</ele>
        <time>1999-11-30T00:00:00Z</time>
      </trkpt>
      <trkpt lat="43.8245" lon="7.4448">
        <ele>956.6</ele>
        <time>1999-11-30T00:00:00Z</time>
      </trkpt>
      <trkpt lat="43.82517" lon="7.44383">
        <ele>960.3</ele>
        <time>1999-11-30T00:00:00Z</time>
      </trkpt>
      <trkpt lat="43.82594" lon="7.44317">
        <ele>969.7</ele>
        <time>1999-11-30T00:00:00Z</time>
      </trkpt>
      <trkpt lat="43.8269" lon="7.4426">
        <ele>976.1</ele>
        <time>1999-11-30T00:00:00Z</time>
      </trkpt>
      <trkpt lat="43.82789" lon="7.44207">
        <ele>988.7</ele>
        <time>1999-11-30T00:00:00Z</time>
      </trkpt>
      <trkpt lat="43.82858" lon="7.4419">
        <ele>1002.9</ele>
        <time>1999-11-30T00:00:00Z</time>
      </trkpt>
      <trkpt lat="43.8293" lon="7.44176">
        <ele>1009.8</ele>
        <time>1999-11-30T00:00:00Z</time>
      </trkpt>
      <trkpt lat="43.82999" lon="7.44152">
        <ele>1007.8</ele>
        <time>1999-11-30T00:00:00Z</time>
      </trkpt>
      <trkpt lat="43.83086" lon="7.44141">
        <ele>1000.3</ele>
        <time>1999-11-30T00:00:00Z</time>
      </trkpt>
      <trkpt lat="43.83158" lon="7.44135">
        <ele>990.5</ele>
        <time>1999-11-30T00:00:00Z</time>
      </trkpt>
      <trkpt lat="43.83209" lon="7.44188">
        <ele>1002.7</ele>
        <time>1999-11-30T00:00:00Z</time>
      </trkpt>
      <trkpt lat="43.83243" lon="7.44246">
        <ele>1015.2</ele>
        <time>1999-11-30T00:00:00Z</time>
      </trkpt>
      <trkpt lat="43.83292" lon="7.44229">
        <ele>987.6</ele>
        <time>1999-11-30T00:00:00Z</time>
      </trkpt>
      <trkpt lat="43.83331" lon="7.44175">
        <ele>971.4</ele>
        <time>1999-11-30T00:00:00Z</time>
      </trkpt>
      <trkpt lat="43.83365" lon="7.44154">
        <ele>965.6</ele>
        <time>1999-11-30T00:00:00Z</time>
      </trkpt>
      <trkpt lat="43.83423" lon="7.44202">
        <ele>970.6</ele>
        <time>1999-11-30T00:00:00Z</time>
      </trkpt>
      <trkpt lat="43.83492" lon="7.44253">
        <ele>970.6</ele>
        <time>1999-11-30T00:00:00Z</time>
      </trkpt>
      <trkpt lat="43.83511" lon="7.44346">
        <ele>983.5</ele>
        <time>1999-11-30T00:00:00Z</time>
      </trkpt>
      <trkpt lat="43.8353" lon="7.44467">
        <ele>982.9</ele>
        <time>1999-11-30T00:00:00Z</time>
      </trkpt>
      <trkpt lat="43.83575" lon="7.44459">
        <ele>968.8</ele>
        <time>1999-11-30T00:00:00Z</time>
      </trkpt>
      <trkpt lat="43.83631" lon="7.44372">
        <ele>951.1</ele>
        <time>1999-11-30T00:00:00Z</time>
      </trkpt>
      <trkpt lat="43.83697" lon="7.44296">
        <ele>948.7</ele>
        <time>1999-11-30T00:00:00Z</time>
      </trkpt>
      <trkpt lat="43.83711" lon="7.44212">
        <ele>943.8</ele>
        <time>1999-11-30T00:00:00Z</time>
      </trkpt>
      <trkpt lat="43.83727" lon="7.44096">
        <ele>944.6</ele>
        <time>1999-11-30T00:00:00Z</time>
      </trkpt>
      <trkpt lat="43.83743" lon="7.43971">
        <ele>948.8</ele>
        <time>1999-11-30T00:00:00Z</time>
      </trkpt>
      <trkpt lat="43.83793" lon="7.43848">
        <ele>959.6</ele>
        <time>1999-11-30T00:00:00Z</time>
      </trkpt>
      <trkpt lat="43.83883" lon="7.43767">
        <ele>944.9</ele>
        <time>1999-11-30T00:00:00Z</time>
      </trkpt>
      <trkpt lat="43.83976" lon="7.43699">
        <ele>940.9</ele>
        <time>1999-11-30T00:00:00Z</time>
      </trkpt>
      <trkpt lat="43.84047" lon="7.43674">
        <ele>945.4</ele>
        <time>1999-11-30T00:00:00Z</time>
      </trkpt>
      <trkpt lat="43.84044" lon="7.43593">
        <ele>943.1</ele>
        <time>1999-11-30T00:00:00Z</time>
      </trkpt>
      <trkpt lat="43.84038" lon="7.43536">
        <ele>943.8</ele>
        <time>1999-11-30T00:00:00Z</time>
      </trkpt>
      <trkpt lat="43.83997" lon="7.43474">
        <ele>940.7</ele>
        <time>1999-11-30T00:00:00Z</time>
      </trkpt>
      <trkpt lat="43.84009" lon="7.4335">
        <ele>946.4</ele>
        <time>1999-11-30T00:00:00Z</time>
      </trkpt>
      <trkpt lat="43.84012" lon="7.43218">
        <ele>952.2</ele>
        <time>1999-11-30T00:00:00Z</time>
      </trkpt>
      <trkpt lat="43.84033" lon="7.43155">
        <ele>959.4</ele>
        <time>1999-11-30T00:00:00Z</time>
      </trkpt>
      <trkpt lat="43.84015" lon="7.43008">
        <ele>975.7</ele>
        <time>1999-11-30T00:00:00Z</time>
      </trkpt>
      <trkpt lat="43.8397" lon="7.42858">
        <ele>995.7</ele>
        <time>1999-11-30T00:00:00Z</time>
      </trkpt>
      <trkpt lat="43.83936" lon="7.42799">
        <ele>1011.7</ele>
        <time>1999-11-30T00:00:00Z</time>
      </trkpt>
      <trkpt lat="43.83993" lon="7.42836">
        <ele>1001.9</ele>
        <time>1999-11-30T00:00:00Z</time>
      </trkpt>
      <trkpt lat="43.84057" lon="7.42901">
        <ele>998.3</ele>
        <time>1999-11-30T00:00:00Z</time>
      </trkpt>
      <trkpt lat="43.84101" lon="7.42944">
        <ele>1002.5</ele>
        <time>1999-11-30T00:00:00Z</time>
      </trkpt>
      <trkpt lat="43.84072" lon="7.42861">
        <ele>1011.3</ele>
        <time>1999-11-30T00:00:00Z</time>
      </trkpt>
      <trkpt lat="43.84045" lon="7.42818">
        <ele>1010.2</ele>
        <time>1999-11-30T00:00:00Z</time>
      </trkpt>
      <trkpt lat="43.84026" lon="7.42755">
        <ele>1021.4</ele>
        <time>1999-11-30T00:00:00Z</time>
      </trkpt>
      <trkpt lat="43.8399" lon="7.42665">
        <ele>1040.4</ele>
        <time>1999-11-30T00:00:00Z</time>
      </trkpt>
      <trkpt lat="43.83941" lon="7.42592">
        <ele>1056.1</ele>
        <time>1999-11-30T00:00:00Z</time>
      </trkpt>
      <trkpt lat="43.83912" lon="7.42568">
        <ele>1066.5</ele>
        <time>1999-11-30T00:00:00Z</time>
      </trkpt>
      <trkpt lat="43.83896" lon="7.426">
        <ele>1066</ele>
        <time>1999-11-30T00:00:00Z</time>
      </trkpt>
      <trkpt lat="43.83882" lon="7.42677">
        <ele>1054.7</ele>
        <time>1999-11-30T00:00:00Z</time>
      </trkpt>
      <trkpt lat="43.83859" lon="7.42729">
        <ele>1040.6</ele>
        <time>1999-11-30T00:00:00Z</time>
      </trkpt>
      <trkpt lat="43.83839" lon="7.42715">
        <ele>1042.2</ele>
        <time>1999-11-30T00:00:00Z</time>
      </trkpt>
      <trkpt lat="43.83797" lon="7.42666">
        <ele>1052.3</ele>
        <time>1999-11-30T00:00:00Z</time>
      </trkpt>
      <trkpt lat="43.83776" lon="7.42648">
        <ele>1055.4</ele>
        <time>1999-11-30T00:00:00Z</time>
      </trkpt>
      <trkpt lat="43.83726" lon="7.4264">
        <ele>1050.9</ele>
        <time>1999-11-30T00:00:00Z</time>
      </trkpt>
      <trkpt lat="43.83681" lon="7.42633">
        <ele>1037.6</ele>
        <time>1999-11-30T00:00:00Z</time>
      </trkpt>
      <trkpt lat="43.83646" lon="7.42637">
        <ele>1021.2</ele>
        <time>1999-11-30T00:00:00Z</time>
      </trkpt>
      <trkpt lat="43.83623" lon="7.42622">
        <ele>1011.3</ele>
        <time>1999-11-30T00:00:00Z</time>
      </trkpt>
      <trkpt lat="43.83626" lon="7.42565">
        <ele>1008.9</ele>
        <time>1999-11-30T00:00:00Z</time>
      </trkpt>
      <trkpt lat="43.83633" lon="7.42514">
        <ele>1008.4</ele>
        <time>1999-11-30T00:00:00Z</time>
      </trkpt>
      <trkpt lat="43.83642" lon="7.42489">
        <ele>1009.3</ele>
        <time>1999-11-30T00:00:00Z</time>
      </trkpt>
      <trkpt lat="43.83705" lon="7.42464">
        <ele>1026.4</ele>
        <time>1999-11-30T00:00:00Z</time>
      </trkpt>
      <trkpt lat="43.83741" lon="7.42434">
        <ele>1031.4</ele>
        <time>1999-11-30T00:00:00Z</time>
      </trkpt>
      <trkpt lat="43.83747" lon="7.4237">
        <ele>1025</ele>
        <time>1999-11-30T00:00:00Z</time>
      </trkpt>
      <trkpt lat="43.83733" lon="7.42291">
        <ele>1017.3</ele>
        <time>1999-11-30T00:00:00Z</time>
      </trkpt>
      <trkpt lat="43.83729" lon="7.42206">
        <ele>1011.8</ele>
        <time>1999-11-30T00:00:00Z</time>
      </trkpt>
      <trkpt lat="43.83758" lon="7.42152">
        <ele>1018.4</ele>
        <time>1999-11-30T00:00:00Z</time>
      </trkpt>
      <trkpt lat="43.83787" lon="7.42073">
        <ele>1025.1</ele>
        <time>1999-11-30T00:00:00Z</time>
      </trkpt>
      <trkpt lat="43.83793" lon="7.42013">
        <ele>1025.9</ele>
        <time>1999-11-30T00:00:00Z</time>
      </trkpt>
      <trkpt lat="43.83784" lon="7.41937">
        <ele>1014.3</ele>
        <time>1999-11-30T00:00:00Z</time>
      </trkpt>
      <trkpt lat="43.83803" lon="7.41857">
        <ele>1012.7</ele>
        <time>1999-11-30T00:00:00Z</time>
      </trkpt>
      <trkpt lat="43.83843" lon="7.41755">
        <ele>1023.1</ele>
        <time>1999-11-30T00:00:00Z</time>
      </trkpt>
      <trkpt lat="43.83859" lon="7.41653">
        <ele>1016.3</ele>
        <time>1999-11-30T00:00:00Z</time>
      </trkpt>
      <trkpt lat="43.83898" lon="7.41517">
        <ele>1020.5</ele>
        <time>1999-11-30T00:00:00Z</time>
      </trkpt>
      <trkpt lat="43.83946" lon="7.41379">
        <ele>1021.6</ele>
        <time>1999-11-30T00:00:00Z</time>
      </trkpt>
      <trkpt lat="43.83988" lon="7.41327">
        <ele>1023.5</ele>
        <time>1999-11-30T00:00:00Z</time>
      </trkpt>
      <trkpt lat="43.84043" lon="7.41307">
        <ele>1039.2</ele>
        <time>1999-11-30T00:00:00Z</time>
      </trkpt>
      <trkpt lat="43.84085" lon="7.4126">
        <ele>1039.1</ele>
        <time>1999-11-30T00:00:00Z</time>
      </trkpt>
      <trkpt lat="43.84141" lon="7.41188">
        <ele>1033.6</ele>
        <time>1999-11-30T00:00:00Z</time>
      </trkpt>
      <trkpt lat="43.8422" lon="7.41161">
        <ele>1049.7</ele>
        <time>1999-11-30T00:00:00Z</time>
      </trkpt>
      <trkpt lat="43.84309" lon="7.41166">
        <ele>1062.2</ele>
        <time>1999-11-30T00:00:00Z</time>
      </trkpt>
      <trkpt lat="43.84371" lon="7.4115">
        <ele>1057.9</ele>
        <time>1999-11-30T00:00:00Z</time>
      </trkpt>
      <trkpt lat="43.84432" lon="7.41158">
        <ele>1067</ele>
        <time>1999-11-30T00:00:00Z</time>
      </trkpt>
      <trkpt lat="43.84481" lon="7.41136">
        <ele>1069.8</ele>
        <time>1999-11-30T00:00:00Z</time>
      </trkpt>
      <trkpt lat="43.84538" lon="7.41093">
        <ele>1090.3</ele>
        <time>1999-11-30T00:00:00Z</time>
      </trkpt>
      <trkpt lat="43.84632" lon="7.41037">
        <ele>1115.3</ele>
        <time>1999-11-30T00:00:00Z</time>
      </trkpt>
      <trkpt lat="43.84721" lon="7.41028">
        <ele>1103.3</ele>
        <time>1999-11-30T00:00:00Z</time>
      </trkpt>
      <trkpt lat="43.84803" lon="7.41018">
        <ele>1098.6</ele>
        <time>1999-11-30T00:00:00Z</time>
      </trkpt>
      <trkpt lat="43.84883" lon="7.4101">
        <ele>1091.6</ele>
        <time>1999-11-30T00:00:00Z</time>
      </trkpt>
      <trkpt lat="43.84955" lon="7.41014">
        <ele>1082.3</ele>
        <time>1999-11-30T00:00:00Z</time>
      </trkpt>
      <trkpt lat="43.85001" lon="7.41038">
        <ele>1070.5</ele>
        <time>1999-11-30T00:00:00Z</time>
      </trkpt>
      <trkpt lat="43.8504" lon="7.40975">
        <ele>1081.8</ele>
        <time>1999-11-30T00:00:00Z</time>
      </trkpt>
      <trkpt lat="43.85088" lon="7.40975">
        <ele>1072.2</ele>
        <time>1999-11-30T00:00:00Z</time>
      </trkpt>
      <trkpt lat="43.85162" lon="7.4102">
        <ele>1050</ele>
        <time>1999-11-30T00:00:00Z</time>
      </trkpt>
      <trkpt lat="43.85181" lon="7.41001">
        <ele>1052</ele>
        <time>1999-11-30T00:00:00Z</time>
      </trkpt>
      <trkpt lat="43.85196" lon="7.40947">
        <ele>1057.4</ele>
        <time>1999-11-30T00:00:00Z</time>
      </trkpt>
      <trkpt lat="43.85232" lon="7.40935">
        <ele>1049.3</ele>
        <time>1999-11-30T00:00:00Z</time>
      </trkpt>
      <trkpt lat="43.85276" lon="7.40925">
        <ele>1039.1</ele>
        <time>1999-11-30T00:00:00Z</time>
      </trkpt>
      <trkpt lat="43.8533" lon="7.40894">
        <ele>1030.5</ele>
        <time>1999-11-30T00:00:00Z</time>
      </trkpt>
      <trkpt lat="43.85367" lon="7.40836">
        <ele>1021.6</ele>
        <time>1999-11-30T00:00:00Z</time>
      </trkpt>
      <trkpt lat="43.8541" lon="7.40795">
        <ele>1013.4</ele>
        <time>1999-11-30T00:00:00Z</time>
      </trkpt>
      <trkpt lat="43.85471" lon="7.40777">
        <ele>1006.8</ele>
        <time>1999-11-30T00:00:00Z</time>
      </trkpt>
      <trkpt lat="43.85561" lon="7.40762">
        <ele>1007</ele>
        <time>1999-11-30T00:00:00Z</time>
      </trkpt>
      <trkpt lat="43.85625" lon="7.40766">
        <ele>1013</ele>
        <time>1999-11-30T00:00:00Z</time>
      </trkpt>
      <trkpt lat="43.85671" lon="7.40847">
        <ele>1029.5</ele>
        <time>1999-11-30T00:00:00Z</time>
      </trkpt>
      <trkpt lat="43.85729" lon="7.40877">
        <ele>1034.5</ele>
        <time>1999-11-30T00:00:00Z</time>
      </trkpt>
      <trkpt lat="43.85781" lon="7.40873">
        <ele>1031.9</ele>
        <time>1999-11-30T00:00:00Z</time>
      </trkpt>
      <trkpt lat="43.85807" lon="7.40814">
        <ele>1020.8</ele>
        <time>1999-11-30T00:00:00Z</time>
      </trkpt>
      <trkpt lat="43.85839" lon="7.40782">
        <ele>1023.7</ele>
        <time>1999-11-30T00:00:00Z</time>
      </trkpt>
      <trkpt lat="43.85896" lon="7.40778">
        <ele>1036.5</ele>
        <time>1999-11-30T00:00:00Z</time>
      </trkpt>
      <trkpt lat="43.85952" lon="7.40813">
        <ele>1049.2</ele>
        <time>1999-11-30T00:00:00Z</time>
      </trkpt>
      <trkpt lat="43.86008" lon="7.40822">
        <ele>1050.6</ele>
        <time>1999-11-30T00:00:00Z</time>
      </trkpt>
      <trkpt lat="43.86072" lon="7.40816">
        <ele>1051.5</ele>
        <time>1999-11-30T00:00:00Z</time>
      </trkpt>
      <trkpt lat="43.86118" lon="7.40811">
        <ele>1054</ele>
        <time>1999-11-30T00:00:00Z</time>
      </trkpt>
      <trkpt lat="43.86165" lon="7.40753">
        <ele>1052.6</ele>
        <time>1999-11-30T00:00:00Z</time>
      </trkpt>
      <trkpt lat="43.86172" lon="7.40868">
        <ele>1076.7</ele>
        <time>1999-11-30T00:00:00Z</time>
      </trkpt>
      <trkpt lat="43.86202" lon="7.40929">
        <ele>1088.3</ele>
        <time>1999-11-30T00:00:00Z</time>
      </trkpt>
      <trkpt lat="43.86245" lon="7.40887">
        <ele>1086.8</ele>
        <time>1999-11-30T00:00:00Z</time>
      </trkpt>
      <trkpt lat="43.86271" lon="7.40847">
        <ele>1084.1</ele>
        <time>1999-11-30T00:00:00Z</time>
      </trkpt>
      <trkpt lat="43.86285" lon="7.40794">
        <ele>1079.6</ele>
        <time>1999-11-30T00:00:00Z</time>
      </trkpt>
      <trkpt lat="43.86323" lon="7.40842">
        <ele>1088.1</ele>
        <time>1999-11-30T00:00:00Z</time>
      </trkpt>
      <trkpt lat="43.86374" lon="7.40804">
        <ele>1087.6</ele>
        <time>1999-11-30T00:00:00Z</time>
      </trkpt>
      <trkpt lat="43.86399" lon="7.40748">
        <ele>1081.7</ele>
        <time>1999-11-30T00:00:00Z</time>
      </trkpt>
      <trkpt lat="43.86437" lon="7.40622">
        <ele>1063.9</ele>
        <time>1999-11-30T00:00:00Z</time>
      </trkpt>
      <trkpt lat="43.86481" lon="7.40496">
        <ele>1059.6</ele>
        <time>1999-11-30T00:00:00Z</time>
      </trkpt>
      <trkpt lat="43.86495" lon="7.40428">
        <ele>1066</ele>
        <time>1999-11-30T00:00:00Z</time>
      </trkpt>
      <trkpt lat="43.86451" lon="7.40366">
        <ele>1055.8</ele>
        <time>1999-11-30T00:00:00Z</time>
      </trkpt>
      <trkpt lat="43.86427" lon="7.40318">
        <ele>1048.5</ele>
        <time>1999-11-30T00:00:00Z</time>
      </trkpt>
      <trkpt lat="43.86431" lon="7.40267">
        <ele>1044</ele>
        <time>1999-11-30T00:00:00Z</time>
      </trkpt>
      <trkpt lat="43.86441" lon="7.40226">
        <ele>1038.1</ele>
        <time>1999-11-30T00:00:00Z</time>
      </trkpt>
      <trkpt lat="43.86491" lon="7.40217">
        <ele>1042.7</ele>
        <time>1999-11-30T00:00:00Z</time>
      </trkpt>
      <trkpt lat="43.86562" lon="7.40158">
        <ele>1032.1</ele>
        <time>1999-11-30T00:00:00Z</time>
      </trkpt>
      <trkpt lat="43.86653" lon="7.40108">
        <ele>1023.3</ele>
        <time>1999-11-30T00:00:00Z</time>
      </trkpt>
      <trkpt lat="43.86763" lon="7.40062">
        <ele>1015.3</ele>
        <time>1999-11-30T00:00:00Z</time>
      </trkpt>
      <trkpt lat="43.86872" lon="7.40014">
        <ele>1007.1</ele>
        <time>1999-11-30T00:00:00Z</time>
      </trkpt>
      <trkpt lat="43.86978" lon="7.39986">
        <ele>1000.5</ele>
        <time>1999-11-30T00:00:00Z</time>
      </trkpt>
      <trkpt lat="43.87084" lon="7.39958">
        <ele>995</ele>
        <time>1999-11-30T00:00:00Z</time>
      </trkpt>
      <trkpt lat="43.87183" lon="7.39909">
        <ele>991.5</ele>
        <time>1999-11-30T00:00:00Z</time>
      </trkpt>
      <trkpt lat="43.87231" lon="7.39902">
        <ele>992.8</ele>
        <time>1999-11-30T00:00:00Z</time>
      </trkpt>
      <trkpt lat="43.87288" lon="7.39857">
        <ele>988.8</ele>
        <time>1999-11-30T00:00:00Z</time>
      </trkpt>
      <trkpt lat="43.87331" lon="7.39772">
        <ele>980.5</ele>
        <time>1999-11-30T00:00:00Z</time>
      </trkpt>
      <trkpt lat="43.87388" lon="7.39709">
        <ele>978.7</ele>
        <time>1999-11-30T00:00:00Z</time>
      </trkpt>
      <trkpt lat="43.87399" lon="7.39647">
        <ele>977</ele>
        <time>1999-11-30T00:00:00Z</time>
      </trkpt>
      <trkpt lat="43.87406" lon="7.39565">
        <ele>978.6</ele>
        <time>1999-11-30T00:00:00Z</time>
      </trkpt>
      <trkpt lat="43.87403" lon="7.39486">
        <ele>985.3</ele>
        <time>1999-11-30T00:00:00Z</time>
      </trkpt>
      <trkpt lat="43.87394" lon="7.39418">
        <ele>992.5</ele>
        <time>1999-11-30T00:00:00Z</time>
      </trkpt>
      <trkpt lat="43.87368" lon="7.39381">
        <ele>992.9</ele>
        <time>1999-11-30T00:00:00Z</time>
      </trkpt>
      <trkpt lat="43.87324" lon="7.39343">
        <ele>987.2</ele>
        <time>1999-11-30T00:00:00Z</time>
      </trkpt>
      <trkpt lat="43.87312" lon="7.39292">
        <ele>987.6</ele>
        <time>1999-11-30T00:00:00Z</time>
      </trkpt>
      <trkpt lat="43.87324" lon="7.39246">
        <ele>998.8</ele>
        <time>1999-11-30T00:00:00Z</time>
      </trkpt>
      <trkpt lat="43.87314" lon="7.39209">
        <ele>1003.4</ele>
        <time>1999-11-30T00:00:00Z</time>
      </trkpt>
      <trkpt lat="43.87287" lon="7.39195">
        <ele>999.7</ele>
        <time>1999-11-30T00:00:00Z</time>
      </trkpt>
      <trkpt lat="43.87267" lon="7.39133">
        <ele>1005</ele>
        <time>1999-11-30T00:00:00Z</time>
      </trkpt>
      <trkpt lat="43.87338" lon="7.39182">
        <ele>1012.3</ele>
        <time>1999-11-30T00:00:00Z</time>
      </trkpt>
      <trkpt lat="43.87422" lon="7.39224">
        <ele>1023.4</ele>
        <time>1999-11-30T00:00:00Z</time>
      </trkpt>
      <trkpt lat="43.87414" lon="7.39257">
        <ele>1017</ele>
        <time>1999-11-30T00:00:00Z</time>
      </trkpt>
      <trkpt lat="43.87518" lon="7.3932">
        <ele>1030.7</ele>
        <time>1999-11-30T00:00:00Z</time>
      </trkpt>
      <trkpt lat="43.87615" lon="7.39374">
        <ele>1037.5</ele>
        <time>1999-11-30T00:00:00Z</time>
      </trkpt>
      <trkpt lat="43.87663" lon="7.39381">
        <ele>1044</ele>
        <time>1999-11-30T00:00:00Z</time>
      </trkpt>
      <trkpt lat="43.87745" lon="7.3953">
        <ele>1040.2</ele>
        <time>1999-11-30T00:00:00Z</time>
      </trkpt>
      <trkpt lat="43.87851" lon="7.39466">
        <ele>1052</ele>
        <time>1999-11-30T00:00:00Z</time>
      </trkpt>
      <trkpt lat="43.87905" lon="7.39416">
        <ele>1055.3</ele>
        <time>1999-11-30T00:00:00Z</time>
      </trkpt>
      <trkpt lat="43.87962" lon="7.39409">
        <ele>1047.3</ele>
        <time>1999-11-30T00:00:00Z</time>
      </trkpt>
      <trkpt lat="43.88012" lon="7.39379">
        <ele>1047.3</ele>
        <time>1999-11-30T00:00:00Z</time>
      </trkpt>
      <trkpt lat="43.88066" lon="7.39399">
        <ele>1036.1</ele>
        <time>1999-11-30T00:00:00Z</time>
      </trkpt>
      <trkpt lat="43.88044" lon="7.39429">
        <ele>1031.6</ele>
        <time>1999-11-30T00:00:00Z</time>
      </trkpt>
      <trkpt lat="43.87948" lon="7.39461">
        <ele>1037.7</ele>
        <time>1999-11-30T00:00:00Z</time>
      </trkpt>
      <trkpt lat="43.87899" lon="7.39474">
        <ele>1046.1</ele>
        <time>1999-11-30T00:00:00Z</time>
      </trkpt>
      <trkpt lat="43.87835" lon="7.39516">
        <ele>1043.7</ele>
        <time>1999-11-30T00:00:00Z</time>
      </trkpt>
      <trkpt lat="43.87788" lon="7.39598">
        <ele>1040.2</ele>
        <time>1999-11-30T00:00:00Z</time>
      </trkpt>
      <trkpt lat="43.87765" lon="7.39726">
        <ele>1037.5</ele>
        <time>1999-11-30T00:00:00Z</time>
      </trkpt>
      <trkpt lat="43.87796" lon="7.39846">
        <ele>1029.7</ele>
        <time>1999-11-30T00:00:00Z</time>
      </trkpt>
      <trkpt lat="43.87785" lon="7.40047">
        <ele>1018.1</ele>
        <time>1999-11-30T00:00:00Z</time>
      </trkpt>
      <trkpt lat="43.87804" lon="7.40142">
        <ele>989.5</ele>
        <time>1999-11-30T00:00:00Z</time>
      </trkpt>
      <trkpt lat="43.87755" lon="7.40182">
        <ele>1004.6</ele>
        <time>1999-11-30T00:00:00Z</time>
      </trkpt>
      <trkpt lat="43.87725" lon="7.40224">
        <ele>1009.3</ele>
        <time>1999-11-30T00:00:00Z</time>
      </trkpt>
      <trkpt lat="43.87719" lon="7.40259">
        <ele>1006.6</ele>
        <time>1999-11-30T00:00:00Z</time>
      </trkpt>
      <trkpt lat="43.87751" lon="7.40335">
        <ele>982.9</ele>
        <time>1999-11-30T00:00:00Z</time>
      </trkpt>
      <trkpt lat="43.87749" lon="7.40387">
        <ele>986.7</ele>
        <time>1999-11-30T00:00:00Z</time>
      </trkpt>
      <trkpt lat="43.87805" lon="7.40419">
        <ele>962.4</ele>
        <time>1999-11-30T00:00:00Z</time>
      </trkpt>
      <trkpt lat="43.87904" lon="7.40463">
        <ele>936.4</ele>
        <time>1999-11-30T00:00:00Z</time>
      </trkpt>
      <trkpt lat="43.87938" lon="7.40541">
        <ele>951.5</ele>
        <time>1999-11-30T00:00:00Z</time>
      </trkpt>
      <trkpt lat="43.87898" lon="7.40658">
        <ele>987</ele>
        <time>1999-11-30T00:00:00Z</time>
      </trkpt>
      <trkpt lat="43.8791" lon="7.408">
        <ele>965</ele>
        <time>1999-11-30T00:00:00Z</time>
      </trkpt>
      <trkpt lat="43.87966" lon="7.41003">
        <ele>934.9</ele>
        <time>1999-11-30T00:00:00Z</time>
      </trkpt>
      <trkpt lat="43.87979" lon="7.40975">
        <ele>924.8</ele>
        <time>1999-11-30T00:00:00Z</time>
      </trkpt>
      <trkpt lat="43.8795" lon="7.40831">
        <ele>932.7</ele>
        <time>1999-11-30T00:00:00Z</time>
      </trkpt>
      <trkpt lat="43.87932" lon="7.4074">
        <ele>950.4</ele>
        <time>1999-11-30T00:00:00Z</time>
      </trkpt>
      <trkpt lat="43.87986" lon="7.40565">
        <ele>921.9</ele>
        <time>1999-11-30T00:00:00Z</time>
      </trkpt>
      <trkpt lat="43.88014" lon="7.40385">
        <ele>866.9</ele>
        <time>1999-11-30T00:00:00Z</time>
      </trkpt>
      <trkpt lat="43.87899" lon="7.40298">
        <ele>908.3</ele>
        <time>1999-11-30T00:00:00Z</time>
      </trkpt>
      <trkpt lat="43.87899" lon="7.40261">
        <ele>916.9</ele>
        <time>1999-11-30T00:00:00Z</time>
      </trkpt>
      <trkpt lat="43.88005" lon="7.40167">
        <ele>878.4</ele>
        <time>1999-11-30T00:00:00Z</time>
      </trkpt>
      <trkpt lat="43.88024" lon="7.40131">
        <ele>871</ele>
        <time>1999-11-30T00:00:00Z</time>
      </trkpt>
      <trkpt lat="43.87998" lon="7.40025">
        <ele>888.3</ele>
        <time>1999-11-30T00:00:00Z</time>
      </trkpt>
      <trkpt lat="43.88019" lon="7.40033">
        <ele>876</ele>
        <time>1999-11-30T00:00:00Z</time>
      </trkpt>
      <trkpt lat="43.88031" lon="7.40105">
        <ele>867.6</ele>
        <time>1999-11-30T00:00:00Z</time>
      </trkpt>
      <trkpt lat="43.88039" lon="7.4017">
        <ele>858.6</ele>
        <time>1999-11-30T00:00:00Z</time>
      </trkpt>
      <trkpt lat="43.87994" lon="7.40211">
        <ele>880</ele>
        <time>1999-11-30T00:00:00Z</time>
      </trkpt>
      <trkpt lat="43.87963" lon="7.40238">
        <ele>890.7</ele>
        <time>1999-11-30T00:00:00Z</time>
      </trkpt>
      <trkpt lat="43.87963" lon="7.40261">
        <ele>885</ele>
        <time>1999-11-30T00:00:00Z</time>
      </trkpt>
      <trkpt lat="43.88" lon="7.4029">
        <ele>859.5</ele>
        <time>1999-11-30T00:00:00Z</time>
      </trkpt>
      <trkpt lat="43.88033" lon="7.4031">
        <ele>845.9</ele>
        <time>1999-11-30T00:00:00Z</time>
      </trkpt>
      <trkpt lat="43.88067" lon="7.40329">
        <ele>835.7</ele>
        <time>1999-11-30T00:00:00Z</time>
      </trkpt>
      <trkpt lat="43.88096" lon="7.40339">
        <ele>825.3</ele>
        <time>1999-11-30T00:00:00Z</time>
      </trkpt>
      <trkpt lat="43.88099" lon="7.40368">
        <ele>829.2</ele>
        <time>1999-11-30T00:00:00Z</time>
      </trkpt>
      <trkpt lat="43.88085" lon="7.40415">
        <ele>843</ele>
        <time>1999-11-30T00:00:00Z</time>
      </trkpt>
      <trkpt lat="43.88076" lon="7.40441">
        <ele>852.1</ele>
        <time>1999-11-30T00:00:00Z</time>
      </trkpt>
      <trkpt lat="43.88073" lon="7.40496">
        <ele>857.3</ele>
        <time>1999-11-30T00:00:00Z</time>
      </trkpt>
      <trkpt lat="43.88072" lon="7.40562">
        <ele>856.6</ele>
        <time>1999-11-30T00:00:00Z</time>
      </trkpt>
      <trkpt lat="43.88073" lon="7.40611">
        <ele>852</ele>
        <time>1999-11-30T00:00:00Z</time>
      </trkpt>
      <trkpt lat="43.88069" lon="7.40654">
        <ele>851.8</ele>
        <time>1999-11-30T00:00:00Z</time>
      </trkpt>
      <trkpt lat="43.88067" lon="7.407">
        <ele>849.9</ele>
        <time>1999-11-30T00:00:00Z</time>
      </trkpt>
      <trkpt lat="43.88091" lon="7.40722">
        <ele>832.5</ele>
        <time>1999-11-30T00:00:00Z</time>
      </trkpt>
      <trkpt lat="43.88095" lon="7.40708">
        <ele>828.3</ele>
        <time>1999-11-30T00:00:00Z</time>
      </trkpt>
      <trkpt lat="43.88086" lon="7.4069">
        <ele>836.1</ele>
        <time>1999-11-30T00:00:00Z</time>
      </trkpt>
      <trkpt lat="43.88103" lon="7.40552">
        <ele>832.5</ele>
        <time>1999-11-30T00:00:00Z</time>
      </trkpt>
      <trkpt lat="43.88131" lon="7.40425">
        <ele>818.6</ele>
        <time>1999-11-30T00:00:00Z</time>
      </trkpt>
      <trkpt lat="43.8815" lon="7.40334">
        <ele>798.8</ele>
        <time>1999-11-30T00:00:00Z</time>
      </trkpt>
      <trkpt lat="43.88139" lon="7.40288">
        <ele>800.8</ele>
        <time>1999-11-30T00:00:00Z</time>
      </trkpt>
      <trkpt lat="43.88111" lon="7.40261">
        <ele>814.7</ele>
        <time>1999-11-30T00:00:00Z</time>
      </trkpt>
      <trkpt lat="43.88125" lon="7.40242">
        <ele>810.2</ele>
        <time>1999-11-30T00:00:00Z</time>
      </trkpt>
      <trkpt lat="43.88141" lon="7.40233">
        <ele>803.5</ele>
        <time>1999-11-30T00:00:00Z</time>
      </trkpt>
      <trkpt lat="43.88146" lon="7.40199">
        <ele>804.4</ele>
        <time>1999-11-30T00:00:00Z</time>
      </trkpt>
      <trkpt lat="43.88169" lon="7.40165">
        <ele>800.6</ele>
        <time>1999-11-30T00:00:00Z</time>
      </trkpt>
      <trkpt lat="43.88194" lon="7.40145">
        <ele>795.6</ele>
        <time>1999-11-30T00:00:00Z</time>
      </trkpt>
      <trkpt lat="43.88195" lon="7.40166">
        <ele>791.3</ele>
        <time>1999-11-30T00:00:00Z</time>
      </trkpt>
      <trkpt lat="43.88174" lon="7.40194">
        <ele>794.5</ele>
        <time>1999-11-30T00:00:00Z</time>
      </trkpt>
      <trkpt lat="43.88162" lon="7.40208">
        <ele>797.1</ele>
        <time>1999-11-30T00:00:00Z</time>
      </trkpt>
      <trkpt lat="43.88166" lon="7.40234">
        <ele>792.9</ele>
        <time>1999-11-30T00:00:00Z</time>
      </trkpt>
      <trkpt lat="43.88157" lon="7.4026">
        <ele>794.3</ele>
        <time>1999-11-30T00:00:00Z</time>
      </trkpt>
      <trkpt lat="43.88188" lon="7.40329">
        <ele>777.1</ele>
        <time>1999-11-30T00:00:00Z</time>
      </trkpt>
      <trkpt lat="43.88186" lon="7.40384">
        <ele>778.9</ele>
        <time>1999-11-30T00:00:00Z</time>
      </trkpt>
      <trkpt lat="43.88171" lon="7.40481">
        <ele>787.2</ele>
        <time>1999-11-30T00:00:00Z</time>
      </trkpt>
      <trkpt lat="43.88166" lon="7.40578">
        <ele>781.2</ele>
        <time>1999-11-30T00:00:00Z</time>
      </trkpt>
      <trkpt lat="43.88181" lon="7.4058">
        <ele>770.2</ele>
        <time>1999-11-30T00:00:00Z</time>
      </trkpt>
      <trkpt lat="43.88193" lon="7.40458">
        <ele>772.6</ele>
        <time>1999-11-30T00:00:00Z</time>
      </trkpt>
      <trkpt lat="43.88221" lon="7.40388">
        <ele>759.3</ele>
        <time>1999-11-30T00:00:00Z</time>
      </trkpt>
      <trkpt lat="43.88236" lon="7.40326">
        <ele>760.4</ele>
        <time>1999-11-30T00:00:00Z</time>
      </trkpt>
      <trkpt lat="43.88254" lon="7.40313">
        <ele>758.6</ele>
        <time>1999-11-30T00:00:00Z</time>
      </trkpt>
      <trkpt lat="43.88273" lon="7.4034">
        <ele>750.8</ele>
        <time>1999-11-30T00:00:00Z</time>
      </trkpt>
      <trkpt lat="43.88288" lon="7.4042">
        <ele>730.7</ele>
        <time>1999-11-30T00:00:00Z</time>
      </trkpt>
      <trkpt lat="43.88316" lon="7.40478">
        <ele>723.3</ele>
        <time>1999-11-30T00:00:00Z</time>
      </trkpt>
      <trkpt lat="43.88323" lon="7.40537">
        <ele>712.9</ele>
        <time>1999-11-30T00:00:00Z</time>
      </trkpt>
      <trkpt lat="43.88346" lon="7.40586">
        <ele>708.9</ele>
        <time>1999-11-30T00:00:00Z</time>
      </trkpt>
      <trkpt lat="43.88375" lon="7.40679">
        <ele>688.4</ele>
        <time>1999-11-30T00:00:00Z</time>
      </trkpt>
      <trkpt lat="43.88434" lon="7.40798">
        <ele>686.3</ele>
        <time>1999-11-30T00:00:00Z</time>
      </trkpt>
      <trkpt lat="43.88424" lon="7.40816">
        <ele>676.1</ele>
        <time>1999-11-30T00:00:00Z</time>
      </trkpt>
      <trkpt lat="43.88392" lon="7.40733">
        <ele>684</ele>
        <time>1999-11-30T00:00:00Z</time>
      </trkpt>
      <trkpt lat="43.88342" lon="7.40701">
        <ele>689.8</ele>
        <time>1999-11-30T00:00:00Z</time>
      </trkpt>
      <trkpt lat="43.88315" lon="7.40615">
        <ele>705.5</ele>
        <time>1999-11-30T00:00:00Z</time>
      </trkpt>
      <trkpt lat="43.88296" lon="7.40613">
        <ele>705.6</ele>
        <time>1999-11-30T00:00:00Z</time>
      </trkpt>
      <trkpt lat="43.88287" lon="7.40682">
        <ele>705.1</ele>
        <time>1999-11-30T00:00:00Z</time>
      </trkpt>
      <trkpt lat="43.88296" lon="7.40757">
        <ele>697.6</ele>
        <time>1999-11-30T00:00:00Z</time>
      </trkpt>
      <trkpt lat="43.88311" lon="7.40839">
        <ele>688.6</ele>
        <time>1999-11-30T00:00:00Z</time>
      </trkpt>
      <trkpt lat="43.88302" lon="7.40902">
        <ele>696.7</ele>
        <time>1999-11-30T00:00:00Z</time>
      </trkpt>
      <trkpt lat="43.88323" lon="7.40969">
        <ele>682.1</ele>
        <time>1999-11-30T00:00:00Z</time>
      </trkpt>
      <trkpt lat="43.88322" lon="7.41056">
        <ele>682.5</ele>
        <time>1999-11-30T00:00:00Z</time>
      </trkpt>
      <trkpt lat="43.88316" lon="7.41136">
        <ele>682.5</ele>
        <time>1999-11-30T00:00:00Z</time>
      </trkpt>
      <trkpt lat="43.88327" lon="7.41244">
        <ele>673.1</ele>
        <time>1999-11-30T00:00:00Z</time>
      </trkpt>
      <trkpt lat="43.88352" lon="7.4134">
        <ele>655.9</ele>
        <time>1999-11-30T00:00:00Z</time>
      </trkpt>
      <trkpt lat="43.88362" lon="7.41317">
        <ele>647.5</ele>
        <time>1999-11-30T00:00:00Z</time>
      </trkpt>
      <trkpt lat="43.88339" lon="7.41194">
        <ele>661.6</ele>
        <time>1999-11-30T00:00:00Z</time>
      </trkpt>
      <trkpt lat="43.88371" lon="7.41025">
        <ele>641.9</ele>
        <time>1999-11-30T00:00:00Z</time>
      </trkpt>
      <trkpt lat="43.88378" lon="7.40993">
        <ele>639.2</ele>
        <time>1999-11-30T00:00:00Z</time>
      </trkpt>
      <trkpt lat="43.8839" lon="7.41047">
        <ele>635.3</ele>
        <time>1999-11-30T00:00:00Z</time>
      </trkpt>
      <trkpt lat="43.88365" lon="7.41101">
        <ele>643.4</ele>
        <time>1999-11-30T00:00:00Z</time>
      </trkpt>
      <trkpt lat="43.88366" lon="7.41166">
        <ele>639.8</ele>
        <time>1999-11-30T00:00:00Z</time>
      </trkpt>
      <trkpt lat="43.8839" lon="7.4129">
        <ele>626.1</ele>
        <time>1999-11-30T00:00:00Z</time>
      </trkpt>
      <trkpt lat="43.8844" lon="7.41398">
        <ele>591.8</ele>
        <time>1999-11-30T00:00:00Z</time>
      </trkpt>
      <trkpt lat="43.88411" lon="7.41462">
        <ele>606</ele>
        <time>1999-11-30T00:00:00Z</time>
      </trkpt>
      <trkpt lat="43.8838" lon="7.4156">
        <ele>599.1</ele>
        <time>1999-11-30T00:00:00Z</time>
      </trkpt>
      <trkpt lat="43.88312" lon="7.41701">
        <ele>595.8</ele>
        <time>1999-11-30T00:00:00Z</time>
      </trkpt>
      <trkpt lat="43.88341" lon="7.41701">
        <ele>583.6</ele>
        <time>1999-11-30T00:00:00Z</time>
      </trkpt>
      <trkpt lat="43.88383" lon="7.41613">
        <ele>585.4</ele>
        <time>1999-11-30T00:00:00Z</time>
      </trkpt>
      <trkpt lat="43.88422" lon="7.41542">
        <ele>584.3</ele>
        <time>1999-11-30T00:00:00Z</time>
      </trkpt>
      <trkpt lat="43.88459" lon="7.41521">
        <ele>570.5</ele>
        <time>1999-11-30T00:00:00Z</time>
      </trkpt>
      <trkpt lat="43.88464" lon="7.41487">
        <ele>572.7</ele>
        <time>1999-11-30T00:00:00Z</time>
      </trkpt>
      <trkpt lat="43.88494" lon="7.41483">
        <ele>560.6</ele>
        <time>1999-11-30T00:00:00Z</time>
      </trkpt>
      <trkpt lat="43.88496" lon="7.41531">
        <ele>554.2</ele>
        <time>1999-11-30T00:00:00Z</time>
      </trkpt>
      <trkpt lat="43.88447" lon="7.41574">
        <ele>565.6</ele>
        <time>1999-11-30T00:00:00Z</time>
      </trkpt>
      <trkpt lat="43.88414" lon="7.41615">
        <ele>571.2</ele>
        <time>1999-11-30T00:00:00Z</time>
      </trkpt>
      <trkpt lat="43.88384" lon="7.41708">
        <ele>563.7</ele>
        <time>1999-11-30T00:00:00Z</time>
      </trkpt>
      <trkpt lat="43.88372" lon="7.41785">
        <ele>553.6</ele>
        <time>1999-11-30T00:00:00Z</time>
      </trkpt>
      <trkpt lat="43.8834" lon="7.41819">
        <ele>553.6</ele>
        <time>1999-11-30T00:00:00Z</time>
      </trkpt>
      <trkpt lat="43.88378" lon="7.4184">
        <ele>535.3</ele>
        <time>1999-11-30T00:00:00Z</time>
      </trkpt>
      <trkpt lat="43.88407" lon="7.41745">
        <ele>545.1</ele>
        <time>1999-11-30T00:00:00Z</time>
      </trkpt>
      <trkpt lat="43.88455" lon="7.41645">
        <ele>545</ele>
        <time>1999-11-30T00:00:00Z</time>
      </trkpt>
      <trkpt lat="43.88511" lon="7.41636">
        <ele>529.5</ele>
        <time>1999-11-30T00:00:00Z</time>
      </trkpt>
      <trkpt lat="43.88513" lon="7.41666">
        <ele>521.6</ele>
        <time>1999-11-30T00:00:00Z</time>
      </trkpt>
      <trkpt lat="43.88484" lon="7.41691">
        <ele>524</ele>
        <time>1999-11-30T00:00:00Z</time>
      </trkpt>
      <trkpt lat="43.88457" lon="7.41744">
        <ele>520.8</ele>
        <time>1999-11-30T00:00:00Z</time>
      </trkpt>
      <trkpt lat="43.8844" lon="7.41837">
        <ele>510.5</ele>
        <time>1999-11-30T00:00:00Z</time>
      </trkpt>
      <trkpt lat="43.88434" lon="7.41883">
        <ele>503.3</ele>
        <time>1999-11-30T00:00:00Z</time>
      </trkpt>
      <trkpt lat="43.88413" lon="7.4192">
        <ele>502.6</ele>
        <time>1999-11-30T00:00:00Z</time>
      </trkpt>
      <trkpt lat="43.8843" lon="7.41924">
        <ele>496.8</ele>
        <time>1999-11-30T00:00:00Z</time>
      </trkpt>
      <trkpt lat="43.88481" lon="7.41829">
        <ele>498.6</ele>
        <time>1999-11-30T00:00:00Z</time>
      </trkpt>
      <trkpt lat="43.8853" lon="7.41787">
        <ele>493.7</ele>
        <time>1999-11-30T00:00:00Z</time>
      </trkpt>
      <trkpt lat="43.88584" lon="7.41807">
        <ele>484.7</ele>
        <time>1999-11-30T00:00:00Z</time>
      </trkpt>
      <trkpt lat="43.88644" lon="7.4189">
        <ele>470.9</ele>
        <time>1999-11-30T00:00:00Z</time>
      </trkpt>
      <trkpt lat="43.88627" lon="7.4191">
        <ele>470.5</ele>
        <time>1999-11-30T00:00:00Z</time>
      </trkpt>
      <trkpt lat="43.88603" lon="7.41923">
        <ele>469.5</ele>
        <time>1999-11-30T00:00:00Z</time>
      </trkpt>
      <trkpt lat="43.88591" lon="7.41956">
        <ele>466.3</ele>
        <time>1999-11-30T00:00:00Z</time>
      </trkpt>
      <trkpt lat="43.88558" lon="7.41973">
        <ele>465.1</ele>
        <time>1999-11-30T00:00:00Z</time>
      </trkpt>
      <trkpt lat="43.88536" lon="7.42063">
        <ele>460.6</ele>
        <time>1999-11-30T00:00:00Z</time>
      </trkpt>
      <trkpt lat="43.88516" lon="7.42164">
        <ele>457</ele>
        <time>1999-11-30T00:00:00Z</time>
      </trkpt>
      <trkpt lat="43.88489" lon="7.42199">
        <ele>456.9</ele>
        <time>1999-11-30T00:00:00Z</time>
      </trkpt>
      <trkpt lat="43.8844" lon="7.42254">
        <ele>455.1</ele>
        <time>1999-11-30T00:00:00Z</time>
      </trkpt>
      <trkpt lat="43.88389" lon="7.42318">
        <ele>450.4</ele>
        <time>1999-11-30T00:00:00Z</time>
      </trkpt>
      <trkpt lat="43.88403" lon="7.42405">
        <ele>442.6</ele>
        <time>1999-11-30T00:00:00Z</time>
      </trkpt>
      <trkpt lat="43.88401" lon="7.42519">
        <ele>434.7</ele>
        <time>1999-11-30T00:00:00Z</time>
      </trkpt>
      <trkpt lat="43.88393" lon="7.4264">
        <ele>429</ele>
        <time>1999-11-30T00:00:00Z</time>
      </trkpt>
      <trkpt lat="43.88369" lon="7.4273">
        <ele>423.1</ele>
        <time>1999-11-30T00:00:00Z</time>
      </trkpt>
      <trkpt lat="43.88346" lon="7.42739">
        <ele>422.5</ele>
        <time>1999-11-30T00:00:00Z</time>
      </trkpt>
      <trkpt lat="43.88321" lon="7.42742">
        <ele>422.3</ele>
        <time>1999-11-30T00:00:00Z</time>
      </trkpt>
      <trkpt lat="43.88299" lon="7.4278">
        <ele>420.4</ele>
        <time>1999-11-30T00:00:00Z</time>
      </trkpt>
      <trkpt lat="43.88358" lon="7.42871">
        <ele>412.6</ele>
        <time>1999-11-30T00:00:00Z</time>
      </trkpt>
      <trkpt lat="43.88347" lon="7.42985">
        <ele>407.9</ele>
        <time>1999-11-30T00:00:00Z</time>
      </trkpt>
      <trkpt lat="43.88387" lon="7.43012">
        <ele>401.8</ele>
        <time>1999-11-30T00:00:00Z</time>
      </trkpt>
      <trkpt lat="43.88429" lon="7.43018">
        <ele>399.5</ele>
        <time>1999-11-30T00:00:00Z</time>
      </trkpt>
      <trkpt lat="43.88427" lon="7.43053">
        <ele>396.1</ele>
        <time>1999-11-30T00:00:00Z</time>
      </trkpt>
      <trkpt lat="43.88384" lon="7.43077">
        <ele>395.6</ele>
        <time>1999-11-30T00:00:00Z</time>
      </trkpt>
      <trkpt lat="43.88354" lon="7.43113">
        <ele>394.1</ele>
        <time>1999-11-30T00:00:00Z</time>
      </trkpt>
      <trkpt lat="43.88321" lon="7.432">
        <ele>387.1</ele>
        <time>1999-11-30T00:00:00Z</time>
      </trkpt>
      <trkpt lat="43.8833" lon="7.43288">
        <ele>381.4</ele>
        <time>1999-11-30T00:00:00Z</time>
      </trkpt>
      <trkpt lat="43.88317" lon="7.43333">
        <ele>380.4</ele>
        <time>1999-11-30T00:00:00Z</time>
      </trkpt>
      <trkpt lat="43.88323" lon="7.43367">
        <ele>379.2</ele>
        <time>1999-11-30T00:00:00Z</time>
      </trkpt>
      <trkpt lat="43.88298" lon="7.43353">
        <ele>380</ele>
        <time>1999-11-30T00:00:00Z</time>
      </trkpt>
      <trkpt lat="43.88272" lon="7.4333">
        <ele>381.5</ele>
        <time>1999-11-30T00:00:00Z</time>
      </trkpt>
      <trkpt lat="43.88246" lon="7.43316">
        <ele>382.3</ele>
        <time>1999-11-30T00:00:00Z</time>
      </trkpt>
      <trkpt lat="43.88239" lon="7.43345">
        <ele>381.6</ele>
        <time>1999-11-30T00:00:00Z</time>
      </trkpt>
      <trkpt lat="43.8829" lon="7.43398">
        <ele>377.4</ele>
        <time>1999-11-30T00:00:00Z</time>
      </trkpt>
      <trkpt lat="43.88333" lon="7.43446">
        <ele>373.5</ele>
        <time>1999-11-30T00:00:00Z</time>
      </trkpt>
      <trkpt lat="43.88363" lon="7.43476">
        <ele>370.9</ele>
        <time>1999-11-30T00:00:00Z</time>
      </trkpt>
      <trkpt lat="43.88404" lon="7.43496">
        <ele>369.7</ele>
        <time>1999-11-30T00:00:00Z</time>
      </trkpt>
      <trkpt lat="43.88411" lon="7.43537">
        <ele>368.3</ele>
        <time>1999-11-30T00:00:00Z</time>
      </trkpt>
      <trkpt lat="43.88361" lon="7.43673">
        <ele>364.3</ele>
        <time>1999-11-30T00:00:00Z</time>
      </trkpt>
      <trkpt lat="43.88312" lon="7.43796">
        <ele>362.3</ele>
        <time>1999-11-30T00:00:00Z</time>
      </trkpt>
      <trkpt lat="43.88269" lon="7.43872">
        <ele>360.2</ele>
        <time>1999-11-30T00:00:00Z</time>
      </trkpt>
      <trkpt lat="43.8822" lon="7.43945">
        <ele>358.9</ele>
        <time>1999-11-30T00:00:00Z</time>
      </trkpt>
      <trkpt lat="43.88173" lon="7.43992">
        <ele>357.7</ele>
        <time>1999-11-30T00:00:00Z</time>
      </trkpt>
      <trkpt lat="43.88142" lon="7.44059">
        <ele>356.4</ele>
        <time>1999-11-30T00:00:00Z</time>
      </trkpt>
      <trkpt lat="43.88111" lon="7.44126">
        <ele>356</ele>
        <time>1999-11-30T00:00:00Z</time>
      </trkpt>
      <trkpt lat="43.88066" lon="7.4418">
        <ele>356.4</ele>
        <time>1999-11-30T00:00:00Z</time>
      </trkpt>
      <trkpt lat="43.88027" lon="7.44239">
        <ele>355.3</ele>
        <time>1999-11-30T00:00:00Z</time>
      </trkpt>
      <trkpt lat="43.88035" lon="7.44311">
        <ele>354.5</ele>
        <time>1999-11-30T00:00:00Z</time>
      </trkpt>
      <trkpt lat="43.88046" lon="7.44386">
        <ele>354.2</ele>
        <time>1999-11-30T00:00:00Z</time>
      </trkpt>
      <trkpt lat="43.88032" lon="7.44463">
        <ele>351.9</ele>
        <time>1999-11-30T00:00:00Z</time>
      </trkpt>
      <trkpt lat="43.87997" lon="7.44544">
        <ele>350</ele>
        <time>1999-11-30T00:00:00Z</time>
      </trkpt>
      <trkpt lat="43.87951" lon="7.44595">
        <ele>348.7</ele>
        <time>1999-11-30T00:00:00Z</time>
      </trkpt>
      <trkpt lat="43.87903" lon="7.44642">
        <ele>349.2</ele>
        <time>1999-11-30T00:00:00Z</time>
      </trkpt>
      <trkpt lat="43.87857" lon="7.44705">
        <ele>350</ele>
        <time>1999-11-30T00:00:00Z</time>
      </trkpt>
      <trkpt lat="43.87845" lon="7.44745">
        <ele>350.6</ele>
        <time>1999-11-30T00:00:00Z</time>
      </trkpt>
      <trkpt lat="43.87788" lon="7.44734">
        <ele>356.7</ele>
        <time>1999-11-30T00:00:00Z</time>
      </trkpt>
      <trkpt lat="43.87776" lon="7.44744">
        <ele>357.4</ele>
        <time>2014-07-20T15:11:21Z</time>
      </trkpt>
    </trkseg>
  </trk>
</gpx>